Regional Weather Roundup
Issued by NWS Sioux Falls, SD

Home | Current Version | Previous Version | Graphics & Text | Print | Product List | Glossary Off
Versions: 1 2 3 4 5 6 7 8 9 10 11 12 13 14 15 16 17 18 19 20 21 22 23 24 25 26 27 28 29 30 31 32 33 34 35 36 37 38 39 40 41 42 43 44 45 46 47 48 49 50

000
ASUS43 KFSD 200710
RWRFSD

WEATHER ROUNDUP FOR SE SOUTH DAKOTA/SW MINNESOTA/NW IOWA
NATIONAL WEATHER SERVICE SIOUX FALLS SD
100 AM CST MON FEB 20 2017

NOTE: "FAIR" INDICATES FEW OR NO CLOUDS BELOW 12,000 FEET WITH NO
SIGNIFICANT WEATHER AND OR OBSTRUCTIONS TO VISIBILITY.


SDZ038>040-050-052>070-200800-
SOUTHEAST SOUTH DAKOTA

CITY           SKY/WX    TMP DP  RH WIND       PRES   REMARKS
BROOKINGS      CLOUDY    51  48  89 S14       29.69S
CHAMBERLAIN    CLOUDY    58  50  75 SW13G18   29.59R
HURON          CLOUDY    53  49  86 SE16      29.60S
MADISON        FAIR      50  50 100 S16G25    29.67F
MITCHELL       CLOUDY    55  50  83 S16G24    29.63F
SIOUX FALLS    CLOUDY    55  51  86 S15       29.71F
WINNER         FAIR      59  48  67 S15G24    29.58S
YANKTON        MOCLDY    55  48  76 S13       29.69F
$$

MNZ071-072-080-081-089-090-097-098-200800-
SOUTHWEST MINNESOTA

CITY           SKY/WX    TMP DP  RH WIND       PRES   REMARKS
FAIRMONT       CLOUDY    50  45  83 S14       29.83S
JACKSON        MOCLDY    52  45  76 S15       29.80F
LUVERNE        CLOUDY    50  46  87 S9        29.75F
MARSHALL       CLOUDY    53  48  83 SE14      29.72F
MONTEVIDEO     CLOUDY    54  48  82 S12G20    29.74F
PIPESTONE      PTCLDY    54  46  76 S15       29.73F
REDWOOD FALLS  CLOUDY    53  46  77 S18       29.75F
TRACY          CLOUDY    53  49  84 S16G22    29.73F
WINDOM         MOCLDY    54  46  76 S15G22    29.77F
WORTHINGTON    MOCLDY    51  48  89 S17       29.77F
$$

IAZ001>003-012>014-020>022-031-032-NEZ013-014-SDZ071-200800-
NORTHWEST IOWA

CITY           SKY/WX    TMP DP  RH WIND       PRES   REMARKS
CHEROKEE       CLOUDY    52  51  97 S7        29.80S
DENISON        PTCLDY    55  52  88 S13       29.79F
ESTHERVILLE    CLOUDY    51  47  86 S15       29.81F
LE MARS        CLOUDY    54  52  94 S14       29.77S
SHELDON        CLOUDY    52  52 100 S10G16    29.76S
SIOUX CITY     CLOUDY    56  52  86 S12       29.76F
SPENCER        CLOUDY    50  47  89 S9        29.81F
STORM LAKE     CLOUDY    50  48  93 S12       29.81F
$$

ABBREVIATIONS USED IN REMARKS
   TC - TEMPERATURE IN CELSIUS
  WCI - WIND CHILL INDEX
   HX - HEAT INDEX
  VSB - VISIBILITY




USA.gov is the U.S. government's official web portal to all federal, state and local government web resources and services.